Regional Weather Roundup
Issued by NWS

Home | Current Version | Previous Version | Text Only | Print | Product List | Glossary Off
Versions: 1 2 3 4 5 6 7 8 9 10 11 12 13 14 15 16 17 18 19 20 21 22 23 24 25 26 27 28 29 30 31 32 33 34 35 36 37 38 39 40 41 42 43 44 45 46 47 48 49 50

000
ASUS43 KLSX 010407
RWRMO

WEATHER SUMMARY FOR MISSOURI
NATIONAL WEATHER SERVICE SPRINGFIELD MO
1100 PM CDT WED AUG 31 2016

NOTE: "FAIR" INDICATES FEW OR NO CLOUDS BELOW 12,000 FEET WITH NO
       SIGNIFICANT WEATHER AND/OR OBSTRUCTIONS TO VISIBILITY.
       CURRENT SKY AND/OR WEATHER CONDITIONS ARE NOT AVAILABLE FOR
       CHILLICOTHE AND FARMINGTON.

MOZ001>031-035>038-043-044-053-054-010500-
...NORTHERN AND WESTERN MISSOURI...

CITY           SKY/WX    TMP DP  RH WIND       PRES   REMARKS
KANSAS CTY INT PTCLDY    68  61  78 NE6       30.13R
KANSAS C DTWN  PTCLDY    70  62  76 NE5       30.12R
LEE`S SUMMIT   CLEAR     70  62  76 NE6       30.13R
ST JOSEPH      CLEAR     65  62  90 N7        30.14R
CHILLICOTHE      N/A     66  63  90 CALM      30.15R
KIRKSVILLE     CLOUDY    63  58  83 N6        30.14R

$$
MOZ066>068-077>081-088>096-101>105-010500-
...SOUTHWEST MISSOURI...

CITY           SKY/WX    TMP DP  RH WIND       PRES   REMARKS
SPRINGFIELD    PTCLDY    71  67  87 N3        30.09R
JOPLIN         MOCLDY    71  69  93 NE3       30.09R
BRANSON        MOCLDY    72  68  88 CALM      30.09S

$$
MOZ032>034-039>042-045>050-055>058-069>072-010500-
...CENTRAL MISSOURI...

CITY           SKY/WX    TMP DP  RH WIND       PRES   REMARKS
COLUMBIA       CLEAR     68  65  90 N8        30.10R
JEFFERSON CITY CLEAR     71  67  87 N5        30.08R
ROLLA          CLEAR     68  67  96 N3        30.07S
SEDALIA        CLEAR     69  65  86 N6        30.12R
WHITEMAN AFB   PTCLDY    68  68  99 N5        30.11R
OSAGE BEACH    CLEAR     70  69  97 N3        30.09R

$$
MOZ051-052-059>065-010500-
...EAST CENTRAL MISSOURI...

CITY           SKY/WX    TMP DP  RH WIND       PRES   REMARKS
ST LOUIS INTL  PTCLDY    75  68  78 N7        30.06R
SPIRIT OF STL  MOCLDY    74  69  85 N3        30.05R
ST CHARLES     CLEAR     72  69  90 N9        30.05R

$$
MOZ072>076-082>087-097>100-106>115-010500-
...SOUTH CENTRAL AND SOUTHEAST MISSOURI...

CITY           SKY/WX    TMP DP  RH WIND       PRES   REMARKS
CAPE GIRARDEAU PTCLDY    73  69  87 N5        30.00S
FARMINGTON     CLEAR     73  69  87 N3        30.06R
POPLAR BLUFF   CLEAR     73  69  87 N6        30.00S
WEST PLAINS    PTCLDY    71  68  90 N6        30.09R

$$


USA.gov is the U.S. government's official web portal to all federal, state and local government web resources and services.